Location: Strawberry
(45.6646°N, 111.9596°W)
Time: 12:30:24
(UTC+00:00)

Transit 4A - Pass Details

Date: 09 October 2022
Orbit: 871 x 973 km, 66.8° (Epoch: 26 November)

Event Time Altitude Azimuth Distance (km) Brightness Sun altitude
Exits shadow 09:47:55 - 339° (NNW) 2,990 10.7 -38.7°
Reaches altitude 10° 09:50:23 10° 359° (N) 2,554 10.5 -38.3°
Maximum altitude 09:52:24 12° 19° (NNE) 2,425 10.6 -38.0°
Drops below altitude 10° 09:54:25 10° 40° (NE) 2,538 10.9 -37.8°
Sets 09:58:54 0° 72° (ENE) 3,465 11.8 -37.1°
